Regional Weather Roundup
Issued by NWS

Home | Current Version | Previous Version | Text Only | Print | Product List | Glossary Off
Versions: 1 2 3 4 5 6 7 8 9 10 11 12 13 14 15 16 17 18 19 20 21 22 23 24 25 26 27 28 29 30 31 32 33 34 35 36 37 38 39 40 41 42 43 44 45 46 47 48 49 50

000
ASUS45 KCYS 270510
RWRWY

WYOMING REGIONAL WEATHER ROUNDUP
NATIONAL WEATHER SERVICE CHEYENNE WY
1100 PM MDT TUE JUL 26 2016

NOTE:  "FAIR" INDICATES FEW OR NO CLOUDS BELOW 12,000 FEET
WITH NO SIGNIFICANT WEATHER AND/OR OBSTRUCTIONS TO VISIBILITY.

WYZ001-270600-
YELLOWSTONE NATIONAL PARK

CITY           SKY/WX    TMP DP  RH WIND       PRES   REMARKS
LK YELLOWSTONE   N/A     54  37  52 CALM      30.38S
W YELLOWSTONE  NOT AVBL

$$
WYZ002>013-054>058-071-098>099-270600-
NORTHERN WYOMING

CITY           SKY/WX    TMP DP  RH WIND       PRES   REMARKS
JACKSON        FAIR      63  36  36 N8        30.24R
CODY           FAIR      72  41  33 NW7       30.17S
GREYBULL       FAIR      79  46  31 SW12      30.05R
WORLAND        FAIR      82  39  21 NE6       30.07R
SHERIDAN       FAIR      68  50  52 SW8       30.08S
BUFFALO        FAIR      68  51  54 W6        30.15F
GILLETTE       FAIR      63  53  70 N3        30.09S
HULETT         FAIR      68  54  60 NE6       30.13R
NEWCASTLE      FAIR      70  52  52 CALM      30.10R

$$
WYZ014>020-022>026-101>103-270600-
CENTRAL WYOMING

CITY           SKY/WX    TMP DP  RH WIND       PRES   REMARKS
BIG PINEY      FAIR      63  31  30 N12       30.26S
PINEDALE       FAIR      59  32  36 CALM      30.27S
DUBOIS         CLOUDY    63  32  31 SE7       30.29S
LANDER         FAIR      73  37  27 W8        30.15R
RIVERTON       FAIR      78  34  20 N14       30.15R
CASPER         FAIR      72  47  40 SE14      30.14F
DOUGLAS          N/A    N/A N/A N/A MISG      30.15R

$$
WYZ021-027>030-104>119-270600-
SOUTHERN WYOMING

CITY           SKY/WX    TMP DP  RH WIND       PRES   REMARKS
EVANSTON       FAIR      68  18  14 SW9       30.27R
KEMMERER         N/A     64  32  29 N10       30.28S
FORT BRIDGER   FAIR      68  18  14 W10       30.29S
ROCK SPRINGS   FAIR      69  29  22 S7        30.22S
DIXON          FAIR      64  38  37 CALM      30.28S
RAWLINS        FAIR      71  34  25 S7        30.24R
SARATOGA       FAIR      64  37  36 S12       30.29S
LARAMIE        FAIR      61  37  41 S8        30.29F
CHEYENNE       FAIR      65  46  50 S6        30.22F
TORRINGTON     FAIR      66  59  78 NE14      30.06R
PINE BLUFFS    FAIR      61  46  59 S3        30.14S

$$



USA.gov is the U.S. government's official web portal to all federal, state and local government web resources and services.